| time (UTC) | temp C | wind direction | speed KPH | gust KPH | rain 1hr cm | rain 24hr cm | rain mn cm | humidity % | barometer mb |
| 20260506044525 | 20 | 169 | 4.8 | 11.3 | 0.00 | 0.00 | 0.00 | 86 | 1016.5 |
| 20260506043023 | 20 | 262 | 3.2 | 9.7 | 0.00 | 0.00 | 0.00 | 86 | 1016.6 |
| 20260506041520 | 20 | 163 | 3.2 | 9.7 | 0.00 | 0.00 | 0.00 | 86 | 1016.7 |
| 20260506040019 | 20 | 184 | 0.0 | 8.0 | 0.00 | 0.00 | 0.00 | 86 | 1016.8 |
| 20260506034520 | 20 | 192 | 1.6 | 8.0 | 0.00 | 0.00 | 0.00 | 85 | 1016.8 |
| 20260506033018 | 20 | 202 | 6.4 | 17.7 | 0.00 | 0.00 | 0.00 | 84 | 1016.8 |
| 20260506031518 | 20 | 177 | 4.8 | 11.3 | 0.00 | 0.00 | 0.00 | 85 | 1016.8 |
| 20260506030017 | 20 | 218 | 1.6 | 6.4 | 0.00 | 0.00 | 0.00 | 86 | 1016.9 |
| 20260506024517 | 20 | 211 | 3.2 | 11.3 | 0.00 | 0.00 | 0.00 | 86 | 1016.9 |
| 20260506023027 | 20 | 227 | 1.6 | 9.7 | 0.00 | 0.00 | 0.00 | 85 | 1017.0 |
| 20260506021530 | 20 | 251 | 3.2 | 8.0 | 0.00 | 0.00 | 0.00 | 84 | 1017.1 |
| 20260506020016 | 20 | 166 | 1.6 | 9.7 | 0.00 | 0.00 | 0.00 | 84 | 1016.9 |
| 20260506014518 | 20 | 240 | 0.0 | 9.7 | 0.00 | 0.00 | 0.00 | 85 | 1016.8 |
| 20260506013015 | 20 | 178 | 3.2 | 9.7 | 0.00 | 0.00 | 0.00 | 84 | 1016.8 |
| 20260506011514 | 20 | 219 | 3.2 | 9.7 | 0.00 | 0.00 | 0.00 | 83 | 1016.6 |
| 20260506010014 | 20 | 195 | 1.6 | 8.0 | 0.00 | 0.00 | 0.00 | 84 | 1016.7 |
| 20260506004514 | 20 | 209 | 1.6 | 8.0 | 0.00 | 0.00 | 0.00 | 84 | 1016.5 |
| 20260506003014 | 20 | 175 | 1.6 | 6.4 | 0.00 | 0.00 | 0.00 | 83 | 1016.4 |
| 20260506001512 | 20 | 140 | 0.0 | 8.0 | 0.00 | 0.00 | 0.00 | 82 | 1016.4 |
| 20260506000012 | 20 | 217 | 3.2 | 8.0 | 0.00 | 0.00 | 0.00 | 81 | 1016.5 |
| 20260505234514 | 20 | 103 | 1.6 | 9.7 | 0.00 | 0.00 | 0.00 | 79 | 1016.6 |
| 20260505233010 | 21 | 230 | 4.8 | 8.0 | 0.00 | 0.00 | 0.00 | 78 | 1016.5 |
| 20260505231518 | 21 | 169 | 3.2 | 14.5 | 0.00 | 0.00 | 0.00 | 77 | 1016.5 |
| 20260505230020 | 21 | 183 | 3.2 | 16.1 | 0.00 | 0.00 | 0.00 | 76 | 1016.6 |
| 20260505224513 | 21 | 155 | 4.8 | 17.7 | 0.00 | 0.00 | 0.00 | 74 | 1016.5 |
| 20260505223008 | 22 | 228 | 6.4 | 14.5 | 0.00 | 0.00 | 0.00 | 72 | 1016.6 |
| 20260505221508 | 22 | 196 | 4.8 | 12.9 | 0.00 | 0.00 | 0.00 | 73 | 1016.6 |
| 20260505220007 | 22 | 232 | 6.4 | 14.5 | 0.00 | 0.00 | 0.00 | 72 | 1016.5 |
| 20260505214507 | 22 | 189 | 6.4 | 11.3 | 0.00 | 0.00 | 0.00 | 74 | 1016.4 |
| 20260505213014 | 22 | 244 | 3.2 | 14.5 | 0.00 | 0.00 | 0.00 | 75 | 1016.3 |
| 20260505211510 | 23 | 232 | 4.8 | 22.5 | 0.00 | 0.00 | 0.00 | 74 | 1016.3 |
| 20260505210008 | 22 | 155 | 4.8 | 16.1 | 0.00 | 0.00 | 0.00 | 74 | 1016.6 |
| 20260505204506 | 22 | 211 | 4.8 | 14.5 | 0.00 | 0.00 | 0.00 | 73 | 1016.5 |
| 20260505203006 | 22 | 264 | 4.8 | 16.1 | 0.00 | 0.00 | 0.00 | 73 | 1016.7 |
| 20260505201512 | 23 | 175 | 9.7 | 17.7 | 0.00 | 0.00 | 0.00 | 71 | 1016.8 |
| 20260505200007 | 22 | 130 | 9.7 | 16.1 | 0.00 | 0.00 | 0.00 | 72 | 1017.0 |
| 20260505194503 | 23 | 215 | 3.2 | 16.1 | 0.00 | 0.00 | 0.00 | 74 | 1017.1 |
| 20260505193002 | 23 | 180 | 8.0 | 12.9 | 0.00 | 0.00 | 0.00 | 72 | 1017.4 |
| 20260505191505 | 23 | 193 | 4.8 | 19.3 | 0.00 | 0.00 | 0.00 | 71 | 1017.6 |
| 20260505190059 | 23 | 298 | 3.2 | 17.7 | 0.00 | 0.00 | 0.00 | 72 | 1017.7 |
| 20260505184558 | 23 | 139 | 8.0 | 22.5 | 0.00 | 0.00 | 0.00 | 71 | 1017.6 |
| 20260505183055 | 23 | 175 | 6.4 | 16.1 | 0.00 | 0.00 | 0.00 | 72 | 1017.7 |
| 20260505181555 | 23 | 164 | 8.0 | 19.3 | 0.00 | 0.00 | 0.00 | 71 | 1017.7 |
| 20260505180100 | 23 | 141 | 11.3 | 17.7 | 0.00 | 0.00 | 0.00 | 71 | 1017.8 |
| 20260505174555 | 23 | 213 | 3.2 | 14.5 | 0.00 | 0.00 | 0.00 | 72 | 1017.8 |
| 20260505173056 | 23 | 138 | 11.3 | 17.7 | 0.00 | 0.00 | 0.00 | 70 | 1017.9 |
| 20260505171551 | 23 | 163 | 4.8 | 19.3 | 0.00 | 0.00 | 0.00 | 71 | 1017.9 |
| 20260505170106 | 23 | 265 | 4.8 | 16.1 | 0.00 | 0.00 | 0.00 | 70 | 1018.1 |
| 20260505164553 | 23 | 165 | 9.7 | 17.7 | 0.00 | 0.00 | 0.00 | 69 | 1018.1 |
| 20260505163047 | 23 | 171 | 6.4 | 17.7 | 0.00 | 0.00 | 0.00 | 68 | 1018.1 |
| 20260505161547 | 23 | 304 | 3.2 | 14.5 | 0.00 | 0.00 | 0.00 | 68 | 1018.3 |
| 20260505153045 | 23 | 230 | 4.8 | 11.3 | 0.00 | 0.00 | 0.00 | 69 | 1018.4 |
| 20260505151556 | 23 | 289 | 6.4 | 16.1 | 0.00 | 0.00 | 0.00 | 66 | 1018.4 |
| 20260505124520 | 20 | 173 | 1.6 | 8.0 | 0.00 | 0.00 | 0.00 | 79 | 1018.0 |
| 20260505123016 | 19 | 252 | 3.2 | 9.7 | 0.00 | 0.00 | 0.00 | 84 | 1017.9 |
| 20260505121515 | 18 | 212 | 3.2 | 6.4 | 0.00 | 0.00 | 0.00 | 90 | 1017.9 |
| 20260505120012 | 16 | 207 | 1.6 | 4.8 | 0.00 | 0.00 | 0.00 | 98 | 1017.9 |
| 20260505114511 | 15 | 225 | 0.0 | 0.0 | 0.00 | 0.00 | 0.00 | 96 | 1017.8 |
| 20260505113016 | 13 | 225 | 0.0 | 0.0 | 0.00 | 0.00 | 0.00 | 95 | 1017.7 |
| 20260505111508 | 13 | 225 | 0.0 | 1.6 | 0.00 | 0.00 | 0.00 | 94 | 1017.5 |
| 20260505101559 | 13 | 225 | 0.0 | 0.0 | 0.00 | 0.00 | 0.00 | 91 | 1016.8 |
| 20260505100100 | 13 | 213 | 0.0 | 0.0 | 0.00 | 0.00 | 0.00 | 90 | 1016.6 |
| 20260505094555 | 14 | 213 | 0.0 | 0.0 | 0.00 | 0.00 | 0.00 | 90 | 1016.5 |
| 20260505093052 | 15 | 213 | 0.0 | 3.2 | 0.00 | 0.00 | 0.00 | 90 | 1016.4 |
| 20260505091548 | 15 | 213 | 0.0 | 1.6 | 0.00 | 0.00 | 0.00 | 89 | 1016.4 |
| 20260505090058 | 16 | 213 | 0.0 | 1.6 | 0.00 | 0.00 | 0.00 | 89 | 1016.3 |
| 20260505084550 | 16 | 213 | 0.0 | 1.6 | 0.00 | 0.00 | 0.00 | 88 | 1016.2 |
| 20260505083045 | 16 | 213 | 0.0 | 0.0 | 0.00 | 0.00 | 0.00 | 86 | 1016.2 |
| 20260505081544 | 17 | 213 | 0.0 | 3.2 | 0.00 | 0.00 | 0.00 | 86 | 1016.2 |
| 20260505080035 | 17 | 217 | 0.0 | 4.8 | 0.00 | 0.00 | 0.00 | 86 | 1016.1 |
| 20260505074533 | 17 | 207 | 0.0 | 4.8 | 0.00 | 0.00 | 0.00 | 85 | 1016.0 |
| 20260505073037 | 17 | 211 | 0.0 | 6.4 | 0.00 | 0.00 | 0.00 | 84 | 1015.9 |
| 20260505071530 | 17 | 209 | 1.6 | 6.4 | 0.00 | 0.00 | 0.00 | 84 | 1015.9 |
| 20260505070029 | 18 | 219 | 0.0 | 3.2 | 0.00 | 0.00 | 0.00 | 83 | 1016.0 |
| 20260505064528 | 18 | 180 | 1.6 | 8.0 | 0.00 | 0.00 | 0.00 | 83 | 1016.0 |
| 20260505063027 | 18 | 206 | 1.6 | 4.8 | 0.00 | 0.00 | 0.00 | 81 | 1016.0 |
| 20260505061525 | 18 | 240 | 1.6 | 8.0 | 0.00 | 0.00 | 0.00 | 80 | 1016.2 |
| 20260505060031 | 18 | 246 | 0.0 | 9.7 | 0.00 | 0.00 | 0.00 | 79 | 1016.3 |
| 20260505054534 | 18 | 227 | 3.2 | 14.5 | 0.00 | 0.00 | 0.00 | 78 | 1016.4 |
| 20260505053021 | 18 | 167 | 1.6 | 14.5 | 0.00 | 0.00 | 0.00 | 77 | 1016.5 |
| 20260505051521 | 18 | 91 | 1.6 | 11.3 | 0.00 | 0.00 | 0.00 | 77 | 1016.4 |